Regional Weather Roundup
Issued by NWS

Home | Current Version | Previous Version | Graphics & Text | Print | Product List | Glossary On
Versions: 1 2 3 4 5 6 7 8 9 10 11 12 13 14 15 16 17 18 19 20 21 22 23 24 25 26 27 28 29 30 31 32 33 34 35 36 37 38 39 40 41 42 43 44 45 46 47 48 49 50
000
ASUS45 KPSR 222300
RWRAZ

PRELIMINARY ARIZONA REGIONAL HOURLY WEATHER ROUNDUP
NATIONAL WEATHER SERVICE PHOENIX AZ
400 PM MST MON SEP 22 2014

NOTE: FAIR INDICATES FEW OR NO CLOUDS BELOW 12,000 FEET WITH NO
SIGNIFICANT WEATHER AND/OR OBSTRUCTIONS TO VISIBILITY.

AZZ001>003-036-230000-
NORTHWEST ARIZONA

CITY           SKY/WX    TMP DP  RH WIND       PRES   REMARKS
KINGMAN        SUNNY     90  34  13 SW10      30.05F
$$

AZZ004>008-015-016-018-230000-
NORTH CENTRAL ARIZONA

CITY           SKY/WX    TMP DP  RH WIND       PRES   REMARKS
GRAND CANYON   MOSUNNY   76  40  27 SW8G20    30.27F
PRESCOTT       MOSUNNY   82  50  32 S12       30.16F
FLAGSTAFF      MOSUNNY   73  44  35 SW15      30.31S
PAYSON         SUNNY     82  55  39 W12       30.18F
PAGE           SUNNY     86  41  20 W6        30.10F
$$

AZZ009>014-017-230000-
NORTHEAST ARIZONA

CITY           SKY/WX    TMP DP  RH WIND       PRES   REMARKS
WINSLOW        NOT AVBL
SAINT JOHNS    MOSUNNY   77  55  46 CALM      30.19F
WINDOW ROCK    PTSUNNY   77  51  40 W9        30.27
$$

AZZ023-230000-
GREATER PHOENIX AREA

CITY           SKY/WX    TMP DP  RH WIND       PRES   REMARKS
PHOENIX        MOSUNNY  100  51  19 NW12      29.86F
GLENDALE       MOSUNNY   99  48  18 SW9       29.89F
DEER VALLEY    SUNNY     97  52  21 W9        29.89F
SCOTTSDALE     SUNNY     97  53  22 W7        29.91F
MESA-FALCON    MOSUNNY   97  55  24 W12       29.89F
MESA-GATEWAY   MOSUNNY   97  63  32 NW9       29.90F
$$

AZZ027-028-230000-
SOUTHWEST MARICOPA COUNTY AND PINAL COUNTY

CITY           SKY/WX    TMP DP  RH WIND       PRES   REMARKS
CASA GRANDE    SUNNY     97  57  26 W10       29.90F
$$

AZZ503-504-507>509-230000-
SOUTHEAST ARIZONA

CITY           SKY/WX    TMP DP  RH WIND       PRES   REMARKS
TUCSON         MOSUNNY   94  59  31 N8        29.98F
NOGALES        PTSUNNY   81  63  54 N16G23    30.07R
SIERRA VISTA   PTSUNNY   81  61  50 SW3       30.14S
SAFFORD        PTSUNNY   86  63  45 CALM      30.01F
$$

AZZ020-021-025-026-031-230000-
SOUTHWEST ARIZONA

CITY           SKY/WX    TMP DP  RH WIND       PRES   REMARKS
YUMA           NOT AVBL
$$

CAZ031-033-041-043-047-048-061-230000-
SOUTHERN CALIFORNIA

CITY           SKY/WX    TMP DP  RH WIND       PRES   REMARKS
DOWNTOWN L.A.  SUNNY     77  61  57 VRB3      29.92F
L.A. AIRPORT   MOSUNNY   72  63  73 W13       29.93F
SAN DIEGO      MOSUNNY   76  63  64 W14       29.93F
BURBANK        SUNNY     84  56  38 S7        29.91F
ONTARIO        SUNNY     90  56  31 W13       29.91F
RIVERSIDE      SUNNY     88  58  36 W8G17     29.91F
PALM SPRINGS   SUNNY    100  40  12 VRB5      29.85F
EL CENTRO NAS  SUNNY    102  50  17 NE3       29.79F
IMPERIAL       SUNNY    101  52  19 CALM      29.80F
BLYTHE         SUNNY    101  42  13 CALM      29.83F
$$

NVZ020-UTZ003-230000-
SOUTHERN NEVADA-UTAH

CITY           SKY/WX    TMP DP  RH WIND       PRES   REMARKS
LAS VEGAS      NOT AVBL
SALT LAKE CITY PTSUNNY   75  51  43 NW3       30.10F
$$

NMZ009-TXZ055-230000-
NEW MEXICO-WEST TEXAS

CITY           SKY/WX    TMP DP  RH WIND       PRES   REMARKS
ALBUQUERQUE    CLOUDY    79  54  41 W5        30.18F
EL PASO        CLOUDY    71  65  81 E8        30.16R
$$


........................KEY........................
SKY/WX - SKY CONDITION/WEATHER
TMP    - TEMPERATURE IN FAHRENHEIT
DP     - DEW POINT IN FAHRENHEIT
RH     - RELATIVE HUMIDITY IN PERCENT
WIND   - DIRECTION AND SPEED IN MILES PER HOUR (MPH)
VRB    - VARIABLE WIND DIRECTION
PRES   - MEAN SEA LEVEL PRESSURE IN INCHES OF MERCURY
         F - FALLING PRESSURE   R - RISING PRESSURE
         S - STEADY PRESSURE
VSB    - VISIBILITY IN MILES
HX     - HEAT INDEX IN FAHRENHEIT
WCI    - WIND CHILL INDEX IN FAHRENHEIT
TC     - TEMPERATURE IN CELSIUS WHICH IS ALSO KNOWN AS
         TEMPERATURE IN CENTIGRADE
AFB    - AIR FORCE BASE
         LUKE AFB IS LUKE AIR FORCE BASE
         DAVIS-MONTHAN IS DAVIS-MONTHAN AIR FORCE BASE
NAS    - NAVAL AIR STATION
         EL CENTRO NAS IS EL CENTRO NAVAL AIR STATION
N/A    - NOT AVAILABLE


USA.gov is the U.S. government's official web portal to all federal, state and local government web resources and services.